SCP
0 0 0 0 0 0 0 0 0 0 0 0 0 0 0 0 0 0 0 0 0 0 0 0 0 0 0 0 0 0 0 0 0 0 0 0 0 0 0 0 0 0 0 0 0 0 0 0 0
0 0 0 0 0 0 0 0 0 0 0 0 0 0 0 0 0 0 0 0 0 0 0 0 0 0 0 0 0 0 0 0 0 0 0 0 0 0 0 0 0 0 0 0 0 0 0 0 0
0 0 0 0 0 0 0 0 0 0 0 0 0 0 0 0 0 0 0 0 0 0 0 0 0 0 0 0 0 0 0 0 0 0 0 0 0 0 0 0 0 0 0 0 0 0 0 0 0
0 0 0 0 0 0 0 0 0 0 0 0 0 0 0 0 0 0 0 0 0 0 0 0 0 0 0 0 0 0 0 0 0 0 0 0 0 0 0 0 0 0 0 0 0 0 0 0 0
0 0 0 0 0 0 0 0 0 0 0 0 0 0 0 0 0 0 0 0 0 0 0 0 0 0 0 0 0 0 0 0 0 0 0 0 0 0 0 0 0 0 0 0 0 0 0 0 0
0 0 0 0 0 0 0 0 0 0 0 0 0 0 0 0 0 0 0 0 0 0 0 0 0 0 0 0 0 0 0 0 0 0 0 0 0 0 0 0 0 0 0 0 0 0 0 0 0
0 0 0 0 0 0 0 0 0 0 0 0 0 0 0 0 0 0 0 0 0 0 0 0 0 0 0 0 0 0 0 0 0 0 0 0 0 0 0 0 0 0 0 0 0 0 0 0 0
0 0 0 0 0 0 0 0 0 0 0 0 0 0 0 0 0 0 0 0 0 0 0 0 0 0 0 0 0 0 0 0 0 0 0 0 0 0 0 0 0 0 0 0 0 0 0 0 0
0 0 0 0 0 0 0 0 0 0 0 0 0 0 0 0 0 0 0 0 0 0 0 0 0 0 0 0 0 0 0 0 0 0 0 0 0 0 0 0 0 0 0 0 0 0 0 0 0
0 0 0 0 0 0 0 0 0 0 0 0 0 0 0 0 0 0 0 0 0 0 0 0 0 0 0 0 0 0 0 0 0 0 0 0 0 0 0 0 0 0 0 0 0 0 0 0 0
0 0 0 0 0 0 0 0 0 0 0 0 0 0 0 0 0 0 0 0 0 0 0 0 -0 -0 0 -0 -0 -0 -0 -0 -0 -0 0 0 0 0 0 0 0 0 0 0 0 0 0 0 0
0 0 0 0 0 0 0 0 0 0 0 0 0 0 0 0 0 0 0 0 0 0 0 0 -0 -0 -0 -0 -0 -0 -0 -0 -0 -0 -0 0 -0 -0 -0 -0 0 0 0 0 0 0 0 0 0
0 0 0 0 0 0 0 0 0 0 0 0 0 0 0 0 0 0 0 0 0 0 0 0 0 -0 0 0 0 0 0 0 -0 -0 0 0 0 -0 -0 -0 0 0 0 0 0 0 0 0 0
0 0 0 0 0 0 0 0 0 0 0 0 0 0 0 0 0 0 0 0 0 0 0 0 0 0 0 0 0 0 0 0 0 0 0 0 0 0 0 -0 -0 0 0 0 0 0 0 0 0
0 0 0 0 0 0 0 0 0 0 0 0 0 0 0 0 0 0 0 0 0 0 0 0 0 0 0 0 0 0 0 0 0 0 0 0 0 0 0 -0 -0 0 0 0 0 0 0 0 0
0 0 0 0 0 0 0 0 0 0 0 0 0 0 0 0 0 0 0 -0 0 -0 -0 -0 0 0 0 0 0 0 0 0 0 0 0 0 0 0 0 -0 -0 0 0 0 0 0 0 0 0
0 0 0 0 0 0 0 0 0 0 0 0 0 0 0 0 0 0 0 -0 -0 -0 -0 -0 0 0 0 0 0 0 0 0 0 0 0 0 0 0 -0 -0 0 0 0 0 0 0 0 0 0
0 0 0 0 0 0 0 0 0 0 0 0 0 0 0 0 0 0 -0 -0 -0 -0 0 0 -0 0 0 0 0 0 0 0 0 0 0 0 0 0 0 0 0 0 0 0 0 0 0 0 0
0 0 0 0 0 0 0 0 0 0 0 0 0 0 0 0 0 0 0 0 0 0 0 0 0 0 0 0 0 0 0 0 0 0 0 0 0 0 0 0 0 0 0 0 0 0 0 0 0
0 0 0 0 0 0 0 0 0 0 0 0 0 0 0 0 0 0 0 0 0 0 0 0 0 0 0 0 0 0 0 0 0 0 0 0 0 0 0 0 0 0 0 0 0 0 0 0 0
0 0 0 0 0 0 0 0 0 0 0 0 0 0 0 0 0 0 0 0 0 0 0 0 0 0 0 0 0 0 0 0 0 0 0 0 0 0 0 0 0 0 0 0 0 0 0 0 0
0 0 0 0 0 0 0 0 0 0 0 0 0 0 0 0 0 0 0 0 0 0 0 0 0 0 0 0 0 0 0 0 0 0 0 0 0 0 -0 0 0 0 0 0 0 0 0 0 0
0 0 0 0 0 0 0 0 0 0 0 0 0 0 0 0 0 0 0 0 0 0 0 0 0 0 0 0 0 0 0 0 0 0 0 0 0 0 -0 0 0 0 0 0 0 0 0 0 0
0 0 0 0 0 0 0 0 0 0 0 0 0 0 0 0 0 0 0 0 0 0 0 0 -0 -0 0 0 0 0 0 0 0 0 0 0 0 0 0 0 0 0 0 0 0 0 0 -0 -0
0 0 0 0 0 0 0 0 0 0 0 0 0 0 0 0 0 0 0 0 0 0 0 0 -0 -0 -0 -0 -0 0 0 0 0 0 0 0 0 0 0 0 0 0 0 0 0 0 0 -0 -0
0 0 0 0 0 -0 0 0 0 0 0 0 0 0 0 0 0 0 0 0 0 0 0 0 0 -0 0 0 0 0 0 0 0 0 0 0 0 0 0 0 0 0 -0 0 0 0 0 0 -0
0 0 0 0 -0 -0 -0 0 0 0 0 0 0 0 0 0 0 0 0 0 0 0 0 0 0 0 0 0 0 0 0 0 0 0 0 0 0 0 0 0 0 0 -0 -0 0 0 0 0 -0
0 0 0 0 -0 -0 -0 -0 0 0 0 0 0 0 0 0 0 0 0 0 0 0 0 0 0 0 0 0 0 0 0 0 0 0 0 0 0 0 0 0 0 0 0 0 0 0 0 0 0
0 0 0 0 0 -0 -0 -0 0 0 0 0 0 0 0 0 0 0 0 0 0 0 0 0 0 0 0 0 0 0 0 0 0 0 0 0 0 0 0 0 0 0 0 0 0 0 0 0 0
0 0 0 0 0 0 0 0 0 0 0 0 0 0 0 0 0 0 0 0 0 0 0 0 0 0 0 0 0 0 0 0 0 0 0 0 0 0 0 0 0 0 0 0 0 0 0 0 0
Wind_Speed
4 2 3 4 6 5 2 2 1 2 3 3 5 6 6 4 3 4 1 2 4 4 3 5 9 11 11 12 12 12 12 12 12 11 11 11 10 9 9 9 8 8 8 8 8 7 7 6 6
1 2 4 5 5 3 1 2 2 2 4 3 4 5 6 5 4 5 2 3 5 5 4 5 9 11 11 12 12 12 12 11 11 10 10 9 9 9 9 9 8 8 8 8 7 7 6 6 6
1 3 4 4 4 3 2 1 3 4 4 3 4 4 4 4 4 3 3 5 5 5 4 5 10 10 11 11 11 11 11 11 10 10 9 9 9 9 9 8 8 7 7 7 7 7 6 6 6
3 4 5 5 4 1 2 3 4 5 4 4 4 5 4 3 3 4 6 6 6 5 4 5 9 10 10 11 11 11 10 9 9 9 9 8 8 7 7 7 7 7 7 7 7 6 6 7 6
4 5 5 4 2 2 2 2 2 3 3 4 5 6 4 4 6 8 7 6 6 4 3 4 9 10 10 10 10 9 9 8 8 8 8 7 7 7 7 6 6 6 6 6 6 6 6 6 6
5 5 5 2 2 2 2 2 4 6 5 5 5 5 3 3 6 6 6 5 5 4 4 4 8 9 9 9 8 8 8 8 7 7 7 7 7 6 7 6 6 6 6 6 6 6 6 6 6
4 4 3 3 2 2 2 2 4 4 5 4 3 5 3 3 4 5 6 5 5 4 4 4 4 5 7 8 7 7 7 7 7 7 6 6 7 7 7 7 6 6 7 6 6 6 6 6 6
4 5 3 2 3 1 2 2 3 4 4 3 3 6 5 4 5 6 6 5 4 4 4 3 4 4 4 4 6 7 7 7 7 7 7 8 8 8 8 8 7 7 7 6 6 6 7 7 7
3 5 2 2 4 3 3 3 2 3 5 3 3 4 6 9 8 7 5 4 3 2 2 2 3 3 3 3 5 6 7 8 8 7 9 7 4 4 5 7 9 8 8 7 7 7 7 7 7
4 4 2 1 3 5 4 4 3 4 5 4 6 7 9 9 8 7 5 4 2 1 1 1 2 2 3 3 4 3 4 4 4 4 4 3 3 4 5 8 10 10 10 9 9 9 8 6 3
3 4 2 2 4 6 5 3 3 6 4 4 9 11 9 8 7 6 4 3 2 1 1 1 1 2 2 2 2 2 2 3 3 4 4 3 3 3 4 3 5 6 7 5 6 6 4 4 3
4 3 3 3 4 5 5 4 5 4 3 5 8 10 8 8 7 6 5 4 2 2 1 1 2 2 2 2 2 2 2 2 2 3 4 3 3 3 3 3 3 3 3 3 4 3 4 5 4
4 3 5 6 8 7 8 6 5 4 4 8 9 9 8 7 5 4 4 3 3 2 1 1 2 3 2 2 2 2 2 2 2 3 3 3 2 3 3 2 3 3 3 3 3 3 4 5 5
3 6 6 6 7 5 8 5 5 3 5 8 8 7 6 6 5 4 4 3 3 3 2 1 2 3 3 2 2 2 2 2 3 3 3 3 3 2 3 3 3 3 3 3 3 3 4 3 4
5 7 7 5 4 3 6 6 3 3 6 6 5 5 4 4 4 5 4 4 4 3 2 2 3 3 4 3 3 3 2 3 3 3 3 4 3 3 3 3 3 3 3 3 3 4 4 4 5
4 4 4 2 3 2 4 3 1 2 6 6 4 4 4 3 4 4 4 4 4 4 3 3 4 5 4 4 3 3 3 3 3 3 3 4 4 4 3 3 3 3 3 3 3 3 4 4 4
4 3 3 2 2 3 4 3 2 2 5 5 4 4 4 4 3 3 4 4 4 4 4 4 4 5 4 4 4 4 3 4 3 3 3 3 4 4 4 3 3 3 3 3 3 4 3 3 4
2 2 2 1 1 4 3 2 3 3 5 5 4 4 4 5 5 4 4 4 4 4 4 4 4 5 5 4 3 3 4 4 3 3 3 4 4 4 4 3 4 4 4 4 3 4 4 3 3
4 4 2 1 0 3 3 3 3 4 4 5 4 5 5 5 3 3 3 4 4 3 4 4 4 4 3 2 2 2 2 2 3 3 4 4 4 4 4 4 4 4 4 3 3 3 5 4 2
4 4 2 2 2 3 3 1 3 4 5 6 7 7 7 5 3 4 3 3 4 4 4 3 4 4 3 2 2 2 2 1 1 2 4 5 4 4 4 4 3 3 3 5 4 3 2 3 3
2 3 3 2 2 4 3 1 2 3 3 4 5 5 6 8 8 6 5 4 4 4 5 4 4 3 3 3 3 3 3 3 3 3 3 4 4 4 4 4 4 4 4 3 4 3 3 2 3
1 2 4 4 3 1 1 1 4 4 4 6 7 6 7 7 7 6 6 6 5 5 4 4 4 3 3 4 4 4 2 1 0 0 1 2 3 3 4 4 4 4 3 3 3 3 2 3 2
2 3 4 4 3 2 1 1 6 2 6 9 9 9 8 8 8 8 8 7 5 5 4 4 3 3 3 3 4 4 3 1 0 1 2 2 3 3 3 4 4 4 3 4 4 4 4 3 3
5 5 5 4 3 1 2 2 6 5 9 8 10 10 9 8 8 7 6 5 4 4 4 4 4 3 3 3 3 4 4 3 2 1 1 1 2 2 3 3 3 3 3 4 4 4 5 4 4
4 5 3 3 2 3 1 3 9 7 7 10 12 12 10 9 9 8 7 7 6 6 5 5 5 3 3 3 3 4 4 4 4 3 2 1 0 1 1 2 2 2 2 3 3 4 4 4 4
3 4 4 2 2 3 1 5 8 5 4 6 8 9 9 9 9 9 9 8 8 7 6 6 6 4 4 4 4 3 4 3 2 3 2 2 1 1 0 1 2 2 3 3 3 3 3 3 4
5 2 3 4 1 1 4 6 8 2 1 2 5 7 9 10 10 10 8 8 8 7 7 7 7 5 4 4 4 3 3 3 3 3 2 2 1 1 1 2 2 2 3 3 4 3 3 3 3
4 6 4 3 2 2 4 4 4 4 2 2 4 7 8 8 8 8 8 8 7 7 6 6 6 6 5 4 4 4 3 3 3 3 3 2 2 2 2 2 2 2 2 3 4 3 2 4 3
3 3 4 3 2 2 2 6 5 5 4 5 7 7 8 9 9 8 7 7 6 5 5 5 5 5 4 5 4 4 3 3 3 3 3 3 2 3 3 3 3 3 2 3 3 3 3 3 3
3 4 6 3 2 3 2 8 5 3 3 5 5 5 6 7 7 7 7 6 6 6 6 6 5 5 5 4 4 4 4 4 4 3 3 3 3 3 3 3 3 3 3 3 3 2 2 2 2
Wind_Direction
344 39 75 59 57 55 52 13 56 62 63 56 71 82 89 67 75 113 102 111 112 102 92 95 98 95 91 92 91 89 87 86 85 83 81 80 79 77 76 73 70 67 65 62 58 58 57 56 55
352 64 57 60 78 74 30 23 76 85 125 118 69 67 75 73 72 94 94 111 106 102 90 95 98 95 92 90 89 86 84 82 81 80 79 78 76 74 73 71 68 64 60 56 52 52 50 47 46
56 57 76 69 79 120 125 90 109 94 99 93 77 54 64 85 95 104 132 118 98 89 80 96 96 94 92 90 89 88 86 82 77 74 72 70 70 70 70 66 63 61 56 52 47 44 41 40 42
71 46 55 68 70 58 139 142 122 112 74 60 95 73 54 50 111 123 121 112 99 85 77 97 97 94 93 90 87 86 84 80 76 72 70 68 66 65 63 61 56 54 50 47 41 37 38 38 39
59 71 63 60 53 34 80 122 108 95 75 68 88 88 50 30 96 111 112 109 105 90 79 94 98 95 92 89 87 85 81 77 72 68 64 61 57 55 54 51 48 45 43 40 37 35 35 35 35
55 63 79 88 61 51 55 66 94 87 90 83 84 91 65 87 106 114 112 105 101 96 75 72 93 95 90 87 83 79 74 70 65 60 55 48 43 41 41 40 38 34 33 33 36 35 33 32 33
92 84 101 119 104 78 95 73 89 100 91 78 95 93 89 98 113 112 104 97 88 82 70 50 51 64 75 80 77 73 68 62 56 50 45 38 31 28 30 29 29 28 30 34 37 35 34 32 34
109 97 86 105 119 107 87 75 83 94 95 94 95 118 145 153 121 103 91 86 80 73 68 57 47 44 39 41 61 65 59 52 48 43 40 35 27 21 20 19 17 21 28 36 37 38 39 38 39
81 78 109 163 149 135 106 94 73 69 89 63 65 105 130 127 118 106 93 77 76 77 58 65 50 39 36 31 44 42 41 39 38 31 32 34 21 13 9 12 19 23 32 41 42 46 45 44 40
74 105 164 169 151 126 107 101 108 96 81 76 82 91 112 122 127 129 132 137 138 133 97 85 67 45 35 37 38 25 29 28 31 25 22 23 21 15 24 17 25 29 37 41 42 49 46 46 38
79 126 128 85 111 112 106 86 79 110 103 139 136 133 131 130 131 139 149 161 169 165 153 121 96 64 58 48 43 28 22 27 27 26 26 31 31 22 22 19 18 19 31 30 30 35 34 40 45
78 65 97 104 99 97 100 94 74 80 131 135 134 136 136 140 149 161 166 166 146 136 151 119 108 90 70 67 57 42 34 34 31 25 33 41 35 27 18 22 14 20 20 26 28 30 34 44 47
66 78 72 84 83 91 90 85 89 70 97 113 119 128 142 148 152 160 156 144 136 139 128 94 109 108 92 76 61 57 40 38 37 34 32 46 50 34 26 21 22 22 25 35 32 33 40 43 44
89 90 85 79 77 74 94 80 81 80 110 119 127 137 146 148 149 139 137 136 145 150 138 94 101 114 106 90 75 58 46 42 46 42 34 42 49 48 43 33 28 24 24 35 45 44 47 45 48
87 89 70 52 69 82 90 61 71 113 119 124 135 144 142 144 145 151 158 153 152 145 134 123 119 104 102 92 75 64 47 49 50 40 36 43 45 46 50 44 31 16 20 41 49 44 47 51 51
47 62 72 38 67 80 99 119 93 112 124 133 147 155 149 149 156 159 156 150 148 141 134 131 117 102 95 87 75 64 52 51 43 38 38 42 45 51 54 49 28 13 31 44 56 46 55 50 52
33 80 98 65 56 82 98 148 178 148 138 147 160 165 161 158 168 172 167 156 148 144 136 117 109 108 99 86 73 63 56 48 36 35 37 38 44 48 57 49 27 27 45 40 54 51 59 61 59
142 110 89 80 28 103 108 159 171 170 158 168 167 165 170 179 192 177 163 147 139 134 128 123 111 106 102 87 71 56 47 37 33 32 31 38 42 45 54 49 31 37 52 42 49 61 55 57 54
129 114 96 40 116 115 133 162 195 180 169 178 178 179 189 199 194 164 155 144 135 131 127 133 128 125 116 96 85 73 46 21 25 28 32 36 42 46 54 51 38 39 54 51 53 70 64 45 28
106 110 101 44 34 107 129 180 207 199 196 194 191 193 195 188 173 170 167 161 159 155 147 144 149 149 143 117 115 114 107 62 36 16 30 28 37 42 55 54 51 44 56 50 43 56 78 47 30
102 147 154 142 63 53 80 332 218 222 199 201 204 198 193 189 184 183 179 182 171 171 172 166 167 161 148 125 105 80 56 38 26 16 13 8 29 45 53 55 58 52 58 59 48 52 82 83 38
116 170 141 126 102 35 91 264 258 211 207 211 211 203 200 196 186 183 182 184 186 189 174 163 162 160 152 143 137 133 126 117 307 334 4 13 29 44 50 57 59 56 54 57 52 57 68 93 72
143 112 106 102 96 57 29 199 277 193 217 222 213 208 203 194 186 188 190 189 187 178 167 162 151 153 156 153 149 134 125 133 102 50 49 28 20 31 44 55 60 57 54 56 56 57 59 68 85
120 82 63 52 63 351 218 187 272 217 214 214 207 205 202 193 188 190 186 174 174 166 160 158 154 161 162 156 153 152 152 152 134 107 73 26 13 18 31 54 59 61 59 58 59 63 65 66 74
91 91 54 13 10 266 217 212 254 240 217 206 201 201 196 189 184 184 180 178 180 176 173 170 165 177 177 169 170 170 165 166 171 173 160 143 51 14 2 51 64 65 71 72 68 66 62 63 72
142 129 149 181 235 287 280 246 259 261 236 213 199 191 185 186 187 189 189 186 185 182 179 177 179 186 184 181 184 177 169 169 180 181 169 170 182 200 174 94 85 79 81 83 76 68 67 67 69
137 170 169 135 166 290 282 282 299 316 345 186 176 174 184 188 188 190 188 186 185 184 189 187 185 187 189 186 177 177 175 176 183 178 167 171 183 177 134 115 103 90 87 89 90 72 65 72 66
139 144 106 111 141 297 305 290 274 292 282 190 180 186 190 184 183 185 184 186 189 187 188 187 185 188 186 181 181 181 185 184 177 164 167 172 177 157 137 119 113 105 96 96 94 82 76 80 67
124 115 115 118 156 156 301 285 243 246 233 201 199 192 184 180 183 184 184 183 179 175 178 186 187 182 180 183 184 177 184 177 168 170 178 178 173 161 153 147 133 127 119 112 103 96 91 88 72
169 169 151 150 209 176 192 272 286 268 236 195 194 188 182 181 181 178 174 166 168 178 186 191 187 187 188 181 178 183 177 167 170 179 186 179 174 169 161 152 142 140 137 131 126 126 109 111 105